Home   Weather   Xi'an   Past weeks

Flag for China Past Weather in Xi'an, Shaanxi, China — Yesterday and Last 2 Weeks

Now
36 °F

Fog.


Feels Like: 36 °F
Forecast: 28 / 51 °F
Wind: 1 mph from North

Location: Xian/Xianyang

Current Time: Dec 4, 2016 at 10:12:58 am

Latest Report: Dec 4, 2016 at 9:00 am


Visibility: 2 mi

Pressure: 30.15 "Hg

Humidity: 93%

Dew Point: 34 °F

Location of Xi'anLocation

Past Weather in Xi'an — Graph

°F

Xi'an Temperature Yesterday

Maximum temperature yesterday: 57 °F (at 2:00 pm)
Minimum temperature yesterday: 30 °F (at 11:00 pm)
Average temperature yesterday: 43 °F

High & Low Weather Summary for the Past Weeks

 TemperatureHumidityPressure
High61 °F (Nov 19, 2:00 pm)100% (Nov 19, 9:00 pm)30.72 "Hg (Nov 19, 9:00 pm)
Low23 °F (Nov 23, 9:00 pm)23% (Nov 30, 4:00 pm)29.95 "Hg (Nov 20, 4:00 pm)
Average38 °F76%30.34 "Hg
* Reported Nov 19 8:00 am — Dec 4 8:00 am, Xi'an, Weather by CustomWeather, © 2016

Note: Actual official high and low records may vary slightly from our data, if they occured in-between our weather recording intervals... More about our weather records

Advertising

Xi'an Weather History for the Previous 24 Hours

Scroll right to see more
 ConditionsComfort  
Time TempWeatherWind HumidityBarometerVisibility
8:00 am
Sun, Dec 4
27 °FIce fog.1 mph100%30.15 "Hg2 mi
7:00 am27 °FIce fog.1 mph100%30.12 "Hg2 mi
6:00 am27 °FIce fog.3 mph100%30.12 "Hg2 mi
5:00 am28 °FIce fog.3 mph100%30.12 "Hg2 mi
4:00 am30 °FIce fog.3 mph100%30.12 "Hg2 mi
3:00 am30 °FIce fog.1 mph100%30.12 "Hg2 mi
2:00 am28 °FIce fog.1 mph100%30.12 "Hg2 mi
1:00 am32 °FIce fog.1 mph100%30.12 "Hg2 mi
12:00 am34 °FFog.3 mph93%30.15 "Hg2 mi
11:00 pm
Sat, Dec 3
30 °FIce fog.1 mph100%30.15 "Hg2 mi
10:00 pm32 °FIce fog.1 mph100%30.18 "Hg2 mi
9:00 pm36 °FFog.1 mph100%30.18 "Hg2 mi
8:00 pm41 °FFog.3 mph100%30.18 "Hg2 mi
7:00 pm43 °FFog.3 mph93%30.18 "Hg2 mi
6:00 pm46 °FFog.1 mph82%30.18 "Hg2 mi
5:00 pm54 °FHaze.6 mph63%30.18 "Hg3 mi
4:00 pm55 °FClear.8 mph55%30.18 "Hg4 mi
3:00 pm57 °FHaze.6 mph55%30.18 "Hg3 mi
2:00 pm57 °FHaze.10 mph51%30.21 "Hg3 mi
1:00 pm55 °FHaze.10 mph55%30.24 "Hg3 mi
12:00 pm55 °FClear.10 mph31%30.27 "Hg4 mi
11:00 am48 °FFog.8 mph82%30.33 "Hg2 mi
10:00 am43 °FFog.8 mph100%30.33 "Hg1 mi
Weather by CustomWeather, © 2016

See weather overviewHow to use our weather pages